Погода Усть-Ишим

Погода Усть-Ишим : погода сейчас, прогноз погоды и архив. Всё, что Вы хотите узнать о погоде Усть-Ишим!

Хотите узнать прогноз погоды Усть-Ишим? Тогда Вам сюда: Погода Усть-Ишим

Поиск расширенной информации на нашем сайте:

Другие новости

Новости СМИ2

Главная страница сайта

Новости сайта

02.10.2013

Напоминаем, что на нашем новом сайте вы можете получить высокодетализированные прогнозы погоды по пунктам России, СНГ и мира (включающие важные для авиации метеовеличины, такие как направление и скорость ветра, видимость, явления погоды, количество и форма облачности, нижняя и верхняя граница облачности), а также ознакомиться с разнообразными материалами по авиационной метеорологии и подборкой полезных ссылок на эту тему.

Сайт Метеоцентр.Азия посвящён разработке технологий оптимизации авиаметеорологического обслуживания, включая проектирование и перспективное создание нескольких автоматизированных авиаметеорологических систем:
- система выпуска высокодетальных прогностических карт явлений погоды для нижнего воздушного пространства по России и ближнему зарубежью;
- система верификации прогнозов TAF (выпускаемых синоптиками официальных АМСГ РФ и ближнего зарубежья) и AUTOTAF (выпускаемых сайтом Метеоцентр.Азия) - выявление ошибок, онлайн-сопоставление с фактической погодой METAR, автоматическое внесение коррективов в прогнозы при резком отклонении фактической погоды от прогноза, подсчёт оправдываемости прогнозов по элементам и в целом;
- система обработки, анализа и отображения авиаметеорологической информации для применения провайдерами метеорологической информации.


Погода Усть-Ишим - сегодня

Время (UTC), дата Ветер
(°,м/с) 
Видим.   Явления Облачность Т
(°С)
Тd
(°С)
f(%) Тe
(°С)
Pmin
(гПа)
dP
(гПа)
Po
(мм)
O2
(г/м3)
Тmin Tmax R s Состояние
почвы
21 18.01.17 тихо ()   20000 м    ясно 
-27.3 -30.2 76 -27  1032.7  -0.6  769  346           
00 19.01.17 тихо ()   20000 м    ясно 
-25.7 -28.5 77 -26  1031.3  -1.3  768  343           
03 19.01.17 тихо ()   20000 м    6/0 верхняя 
[Ci fib]
-27 -29.9 76 -27  1030.3  -1  767  345  -27.5      74  равномерный
сухой снег
100% 
06 19.01.17 тихо ()   8000 м  дымка  10/0 средняя 
[Ac As]
-21.4 -23.7 82 -21  1029.6  -0.5  767  337           
09 19.01.17 080 (В) 50000 м    8/0 верхняя 
[Ci fib]
-14.8 -16.5 87 -15  1027.9  -1.5  765  327           
12 19.01.17 090 (В) 20000 м    4/0 верхняя 
[Ci fib]
-19.9 -22 83 -23  1026.3  -1.7  764  334           
15 19.01.17 090 (В) 20000 м    ясно 
-20.8 -23 82 -24  1024.1  -2.2  762  334    -14.5       
18 19.01.17 120 (ЮВ) 20000 м    ясно 
-20.9 -23.1 82 -21  1022  -2.1  761  334           
21 19.01.17 140 (ЮВ) 20000 м    ясно 
-20.8 -23 82 -24  1019.2  -2.8  759  333           
00 20.01.17 140 (ЮВ) 4000 м  слаб. снег  10/8 300 м средняя 
[Frnb|As trans]
-19.6 -21.7 83 -20  1017.6  -1.6  758  330           
03 20.01.17 150 (ЮВ) 4000 м  слаб. снег  10/0 средняя 
[As trans]
-20.2 -22.4 83 -23  1015.6  -2  756  331  -25    0.2  74  равномерный
сухой снег
100% 
06 20.01.17 160 (Ю) 22000 м  в посл. час снег  8/0 средняя, верхняя 
[Ac As|Ci sp]
-18.7 -20.8 83 -21  1014.3  -1.2  755  328           
09 20.01.17 150 (ЮВ) 5000 м  слаб. снег{гроза}  10/0 средняя 
[Ac As]
-16.7 -18.8 84 -21  1011.7  -2.5  753  325           
12 20.01.17 150 (ЮВ) 10 км  слаб. снег  10/0 средняя 
[Ac As]
-18.2 -20 86 -22  1009.8  -2  752  326           
15 20.01.17 130 (ЮВ) 10 км  слаб. снег  10/0 средняя 
[As op]
-18.7 -20.6 85 -21  1007.7  -2  750  326    -16.2  0.3     
18 20.01.17 130 (ЮВ) 10 км  ледяные иглы{снег}  ясно 
-19.6 -21.7 83 -24  1005.1  -2.6  748  326           
21 20.01.17 120 (ЮВ) 20000 м  {снег}  ясно 
-19.3 -21.4 83 -24  1003.1  -2  747  325           
00 21.01.17 140 (ЮВ) 10 км  слаб. снег  10/0 средняя 
[As op]
-18.3 -20.3 84 -24  1000.4  -2.7  745  323           
03 21.01.17 140 (ЮВ) 10 км  слаб. снег  10/0 средняя 
[As op]
-16.5 -18.3 86 -20  997.3  -3  743  320  -20.7    0.0  67  равномерный
сухой снег
100% 
06 21.01.17 180 (Ю) 1500 м  ливневой снег  10/10 600 м кучево-дожд. 
[Cb cap]
-13.5 -15.4 86 -18  995.4  -1.8  741  315           
09 21.01.17 200 (Ю) 6-10{10}  9000 м  слаб. ливневой снег  10/8 300 м кучево-дожд., средняя 
[Cb cap|Ac As]
-11.6 -14.8 77 -17  994.2  -1.1  740  313           
12 21.01.17 180 (Ю) 3{10}  20000 м  {ливн. осадки}  10/8 300 м кучево-дожд., средняя 
[Cb cap|Ac As]
-11.8 -14.4 81 -15  995.1  0.9  741  313           
15 21.01.17 200 (Ю) 20000 м  позёмок{ливн. осадки}  6/6 300 м кучево-дожд. 
[Cb cap]
-11.4 -13.9 82 -16  995.6  0.5  741  313    -11.3  0.9     
18 21.01.17 190 (Ю) 5{10}  4000 м  слаб. ливневой снег  10/10 300 м кучево-дожд. 
[Cb cap]
-11.5 -14.1 81 -16  996.6  0.9  742  313           
21 21.01.17 200 (Ю) 20000 м  позёмок{ливн. осадки}  3/3 600 м 
[Sc diur, vesp]
-12.3 -14.7 82 -16  997.3  0.7  743  315           
Время (UTC), дата Ветер
(°,м/с) 
Видим.   Явления Облачность Т
(°С)
Тd
(°С)
f(%) Тe
(°С)
Pmin
(гПа)
dP
(гПа)
Po
(мм)
O2
(г/м3)
Тmin Tmax R s Состояние
почвы

Для получения пояснительной информации подведите курсор к названию столбца.

ПОГОДА Усть-Ишим - архив

Всё, что Вы хотите узнать о погоде Усть-Ишим - удобно и подробно!

Выберите нужную дату (начиная с 1 января 2015* года) и нажмите кнопку "Найти".
Будут отображены архивные сводки погоды по пункту Усть-Ишим, начиная с указанной даты.


Отображать данные в формате CSV (для использования в таблицах Excel)


Внимание! Наш архив погоды предназначен исключительно для личного некоммерческого использования в познавательных целях. Если Вам необходимы официальные справки о состоянии погоды (для производственных, юридических, коммерческих и т.п. целей), обращайтесь в органы Росгидромета.

*Примечание: данная дата относится к архиву по метеостанциям СССР (Россия, СНГ, Балтия).
Архив по метеостанциям Зарубежной Европы и Азии (кроме Китая) хранится 10 дней, по другим регионам земного шара (Китай, Африка, Америка, Австралия, Океания) - 1 день.

Усть-Ишим - район местоположения метеостанции


Название, широта, долгота, высота метеостанции:
Усть-Ишим 57.7°ш. 71.2°д. 56 м над ур. моря [Российская Федерация]

Дополнительная информация

В oтличие oт бoльшинства пoгoдных сайтoв мы публикуем пoдрoбную метеoинфoрмацию в детальнoм прoфессиoнальнoм фoрмате.

Характеристики температуры и влажнoсти вoздуха измеряются на высoте 2 м в тени вдали oт зданий и деревьев.
Скoрoсть ветра измеряется на высoте 10 м (на урoвне рoста челoвека скoрoсть ветра ниже в 1.5-2 раза). Если метеoстанция нахoдится в гoрoде или в лесу, тo скoрoсть ветра занижена на 2-4 м/с пo сравнению с oткрытым местoм. Скoрoсть ветра над акватoриями крупных рек и oзёр, а также на вершинах хoлмoв на 2-5 м/с выше, чем в oбычных услoвиях.
Атмoсфернoе давление в разных тoчках местнoсти мoжет значительнo oтличаться oт давления на метеoстанции, в зависимoсти oт услoвий рельефа (при пoдъёме на 10 м давление пoнижается примернo на 1 мм рт.ст.).